FW2178 Weather Reports


Display with metric or nautical units.
time (UTC)temp
F
wind
direction
speed
MPH
gust
MPH
rain 1hr
in
rain 24hr
in
rain mn
in
humidity
%
barometer
mb
20260905133707 50 153 0.0 0.0 0.00 0.02 0.00 99 1015.7
20260905133208 50 153 0.0 0.0 0.00 0.02 0.00 99 1015.9
20260905133036 50 153 0.0 0.0 0.00 0.02 0.00 99 1015.6
20260905132208 50 153 0.0 0.0 0.00 0.02 0.00 99 1015.9
20260905131709 50 153 0.0 0.0 0.00 0.02 0.00 99 1015.6
20260905131208 50 153 0.0 0.0 0.00 0.02 0.00 99 1015.8
20260905130708 50 153 0.0 0.0 0.00 0.02 0.00 99 1015.9
20260905130209 50 153 0.0 0.0 0.00 0.02 0.00 99 1015.6
20260905125708 50 153 0.0 0.0 0.00 0.02 0.00 99 1015.8
20260905125208 50 153 0.0 0.0 0.00 0.02 0.00 99 1015.6
20260905124709 50 153 0.0 0.0 0.00 0.02 0.00 99 1015.8
20260905124208 50 153 0.0 0.0 0.00 0.02 0.00 99 1015.4
20260905123708 50 153 0.0 0.0 0.00 0.02 0.00 99 1015.4
20260905123208 50 153 0.0 0.0 0.00 0.02 0.00 99 1015.2
20260905122709 50 153 0.0 0.0 0.00 0.02 0.00 99 1015.4
20260905122207 50 153 0.0 0.0 0.00 0.02 0.00 99 1015.4
20260905121708 50 153 0.0 0.0 0.00 0.02 0.00 99 1015.7
20260905121208 50 153 0.0 0.0 0.00 0.02 0.00 99 1015.7
20260905120709 50 153 0.0 0.0 0.00 0.02 0.00 99 1015.4
20260905120209 50 153 0.0 0.0 0.00 0.02 0.00 99 1015.4
20260905115708 50 153 0.0 0.0 0.00 0.02 0.00 99 1015.6
20260905115209 50 153 0.0 0.0 0.00 0.02 0.00 99 1015.4
20260905114707 50 153 0.0 0.0 0.00 0.02 0.00 99 1015.6
20260905114209 50 153 0.0 0.0 0.00 0.02 0.00 99 1015.2
20260905113708 50 153 0.0 0.0 0.00 0.02 0.00 99 1015.6
20260905113209 50 153 0.0 0.0 0.00 0.02 0.00 99 1015.3
20260905112707 50 153 0.0 0.0 0.00 0.02 0.00 99 1015.3
20260905112502 50 153 0.0 0.0 0.00 0.02 0.00 99 1015.3
20260905111709 50 153 0.0 0.0 0.00 0.02 0.00 99 1015.6
20260905111208 50 153 0.0 0.0 0.00 0.02 0.00 99 1015.2
20260905110708 50 153 0.0 0.0 0.00 0.02 0.00 99 1015.3
20260905110208 50 153 0.0 0.0 0.00 0.02 0.00 99 1015.3
20260905105707 50 153 0.0 0.0 0.00 0.02 0.00 99 1015.6
20260905105208 50 153 0.0 0.0 0.00 0.02 0.00 99 1015.3
20260905104959 51 153 0.0 0.0 0.00 0.02 0.00 99 1015.4
20260905104209 51 157 0.0 0.0 0.00 0.02 0.00 99 1015.4
20260905103707 51 157 0.0 0.0 0.00 0.02 0.00 99 1015.6
20260905103257 51 157 0.0 1.0 0.00 0.02 0.00 99 1015.2
20260905103233 51 157 0.0 0.0 0.00 0.02 0.00 99 1015.4
20260905102213 51 157 0.0 1.0 0.00 0.02 0.00 99 1015.3
20260905101709 51 155 0.0 0.0 0.00 0.02 0.00 99 1015.4
20260905101208 51 155 0.0 0.0 0.00 0.02 0.00 99 1015.6
20260905100708 51 155 0.0 0.0 0.00 0.02 0.00 99 1015.3
20260905100516 51 155 0.0 0.0 0.00 0.02 0.00 99 1015.3
20260905095709 51 155 0.0 0.0 0.00 0.02 0.00 99 1015.3
20260905095208 51 155 0.0 7.0 0.00 0.02 0.00 99 1015.2
20260905094708 51 155 0.0 7.0 0.00 0.02 0.00 99 1015.2
20260905094209 51 155 0.0 6.0 0.00 0.02 0.00 99 1015.2
20260905093700 52 157 0.0 0.0 0.00 0.02 0.00 99 1015.0
20260905093200 52 158 0.0 0.0 0.00 0.02 0.00 99 1015.1
20260905092704 52 158 0.0 0.0 0.00 0.02 0.00 99 1015.0
20260905092202 52 158 0.0 0.0 0.00 0.02 0.00 99 1014.9
20260905091701 52 157 0.0 0.0 0.00 0.02 0.00 99 1015.3
20260905091513 52 157 0.0 0.0 0.00 0.02 0.00 99 1014.9
20260905090701 52 157 0.0 0.0 0.00 0.02 0.00 99 1014.7
20260905090200 52 157 0.0 0.0 0.00 0.02 0.00 99 1014.9
20260905085704 52 157 0.0 0.0 0.00 0.02 0.00 99 1014.8
20260905085204 52 157 0.0 0.0 0.00 0.02 0.00 99 1015.1
20260905084701 53 157 0.0 0.0 0.00 0.02 0.00 99 1014.8
20260905084453 53 157 0.0 0.0 0.00 0.02 0.00 99 1014.9
20260905083701 53 157 0.0 0.0 0.00 0.02 0.00 99 1014.7
20260905083202 53 157 0.0 0.0 0.00 0.02 0.00 99 1014.8
20260905083003 53 157 0.0 0.0 0.00 0.02 0.00 99 1014.8
20260905082201 53 157 0.0 0.0 0.00 0.02 0.00 99 1015.0
20260905081702 53 157 0.0 0.0 0.00 0.02 0.00 99 1014.8
20260905081458 53 157 0.0 0.0 0.00 0.02 0.00 99 1014.8
20260905080701 53 157 0.0 0.0 0.00 0.02 0.00 99 1015.0
20260905080202 53 157 0.0 0.0 0.00 0.02 0.00 99 1015.0
20260905075704 53 157 0.0 0.0 0.00 0.02 0.00 99 1014.8
20260905075201 53 157 0.0 0.0 0.00 0.02 0.00 99 1014.8
20260905074702 53 157 0.0 0.0 0.00 0.02 0.00 99 1015.0
20260905074204 53 157 0.0 0.0 0.00 0.02 0.00 99 1015.2
20260905073953 53 157 0.0 0.0 0.00 0.02 0.00 99 1014.8
20260905073602 53 157 0.0 0.0 0.00 0.02 0.00 99 1014.7
20260905073557 53 157 0.0 0.0 0.00 0.02 0.00 99 1014.6
20260905072205 53 157 0.0 0.0 0.00 0.02 0.00 99 1014.9
20260905071957 53 157 0.0 0.0 0.00 0.02 0.00 99 1014.9
20260905071202 53 157 0.0 0.0 0.00 0.02 0.00 99 1014.9
20260905070953 53 157 0.0 0.0 0.00 0.02 0.00 98 1014.9
20260905070204 53 157 0.0 0.0 0.00 0.02 0.00 98 1015.0
20260905065952 53 157 0.0 0.0 0.00 0.02 0.02 98 1014.8
20260905065203 53 157 0.0 0.0 0.00 0.02 0.02 98 1014.9
20260905064705 54 157 0.0 0.0 0.00 0.02 0.02 98 1014.5
20260905064453 54 157 0.0 0.0 0.00 0.02 0.02 98 1014.5
20260905063702 54 158 0.0 0.0 0.00 0.02 0.02 98 1014.5
20260905063206 54 158 0.0 0.0 0.00 0.02 0.02 98 1014.4
20260905062702 54 158 0.0 0.0 0.00 0.02 0.02 98 1014.3
20260905062202 54 158 0.0 0.0 0.00 0.02 0.02 98 1014.5
20260905062003 54 158 0.0 0.0 0.00 0.02 0.02 98 1014.6
20260905061202 54 158 0.0 0.0 0.00 0.02 0.02 98 1014.4
20260905060704 54 158 0.0 0.0 0.00 0.02 0.02 98 1014.4
20260905060204 54 158 0.0 0.0 0.00 0.02 0.02 98 1014.3
20260905055701 54 158 0.0 0.0 0.00 0.02 0.02 98 1014.7
20260905055202 54 158 0.0 0.0 0.00 0.02 0.02 98 1014.4
20260905054705 54 158 0.0 0.0 0.00 0.02 0.02 98 1014.5
20260905054201 54 158 0.0 0.0 0.00 0.02 0.02 97 1014.4
20260905053701 54 157 0.0 0.0 0.00 0.02 0.02 97 1014.6
20260905053603 54 158 0.0 0.0 0.00 0.02 0.02 97 1014.4
20260905053553 54 157 0.0 0.0 0.00 0.02 0.02 97 1014.4
20260905052501 54 158 0.0 0.0 0.00 0.02 0.02 97 1014.4
20260905051701 54 158 0.0 0.0 0.00 0.02 0.02 97 1014.1
20260905051202 55 158 0.0 0.0 0.00 0.02 0.02 97 1014.2
20260905050955 55 158 0.0 0.0 0.00 0.02 0.02 96 1014.4
20260905050201 55 158 0.0 0.0 0.00 0.02 0.02 96 1014.5
20260905045702 55 158 0.0 0.0 0.00 0.02 0.02 96 1014.4
20260905045204 55 158 0.0 0.0 0.00 0.02 0.02 96 1014.4
20260905044701 55 158 0.0 0.0 0.00 0.02 0.02 96 1014.5
20260905044203 55 158 0.0 0.0 0.00 0.02 0.02 96 1014.4
20260905043705 55 158 0.0 0.0 0.00 0.02 0.02 96 1014.4
20260905043201 55 158 0.0 0.0 0.00 0.02 0.02 95 1014.5
20260905042751 55 158 0.0 0.0 0.00 0.02 0.02 95 1014.4
20260905042730 55 158 0.0 0.0 0.00 0.02 0.02 95 1014.5
20260905041702 55 158 0.0 0.0 0.00 0.02 0.02 96 1014.3
20260905041200 55 158 0.0 0.0 0.00 0.02 0.02 96 1014.5
20260905040704 55 158 0.0 0.0 0.00 0.02 0.02 96 1014.3
20260905040201 55 158 0.0 0.0 0.00 0.02 0.02 96 1014.5
20260905035948 55 158 0.0 0.0 0.00 0.02 0.02 96 1014.3
20260905035203 55 159 0.0 0.0 0.00 0.02 0.02 96 1014.2
20260905034702 55 137 0.0 0.0 0.00 0.02 0.02 96 1014.5
20260905034201 55 137 0.0 0.0 0.00 0.02 0.02 96 1014.3
20260905034003 56 137 0.0 0.0 0.01 0.02 0.02 96 1014.4
20260905033454 56 137 0.0 0.0 0.01 0.02 0.02 96 1014.4
20260905032702 56 137 0.0 0.0 0.01 0.02 0.02 96 1014.3
20260905032201 56 137 0.0 0.0 0.01 0.02 0.02 96 1014.2
20260905031948 56 136 0.0 0.0 0.01 0.02 0.02 96 1014.4
20260905031206 56 137 0.0 0.0 0.01 0.02 0.02 96 1014.1
20260905030702 56 137 0.0 0.0 0.01 0.02 0.02 96 1014.2
20260905030201 56 137 0.0 0.0 0.01 0.02 0.02 95 1014.2
20260905025705 56 136 0.0 0.0 0.02 0.01 0.02 95 1014.4
20260905025200 56 138 0.0 0.0 0.02 0.01 0.02 95 1014.1
20260905024702 56 138 0.0 2.0 0.02 0.01 0.02 94 1013.9
20260905024205 56 137 0.0 2.0 0.02 0.01 0.02 94 1013.8
20260905023701 57 135 0.0 0.0 0.01 0.01 0.01 94 1014.0
20260905023455 57 146 0.0 0.0 0.01 0.01 0.01 94 1014.0
20260905022706 57 147 0.0 0.0 0.01 0.01 0.01 94 1013.6
20260905022203 57 150 0.0 1.0 0.01 0.01 0.01 94 1013.8
20260905021704 58 150 0.0 1.0 0.01 0.01 0.01 92 1013.7
20260905021206 58 149 0.0 2.0 0.01 0.01 0.01 91 1014.0
20260905020951 58 149 0.0 8.0 0.01 0.01 0.01 88 1013.9
20260905020203 59 149 0.0 8.0 0.01 0.01 0.01 87 1013.7
20260905015704 60 148 0.0 1.0 0.00 0.00 0.00 82 1013.7
20260905015201 62 145 0.0 0.0 0.00 0.00 0.00 77 1013.6
20260905014947 62 144 0.0 4.0 0.00 0.00 0.00 75 1013.9
20260905014246 62 165 0.0 1.0 0.00 0.00 0.00 70 1013.7
20260905014220 62 144 0.0 4.0 0.00 0.00 0.00 71 1013.7
20260905013147 62 199 0.0 8.0 0.00 0.00 0.00 70 1013.7
20260905012645 62 142 2.0 8.0 0.00 0.00 0.00 72 1013.6
20260905012145 62 138 0.0 6.0 0.00 0.00 0.00 73 1013.6
20260905011938 62 147 0.0 2.0 0.00 0.00 0.00 72 1013.7
20260905011143 62 118 0.0 2.0 0.00 0.00 0.00 72 1013.8
20260905010644 63 52 1.0 2.0 0.00 0.00 0.00 73 1013.5
20260905010143 63 129 0.0 3.0 0.00 0.00 0.00 71 1013.6
20260905005643 65 9 2.0 7.0 0.00 0.00 0.00 70 1013.5
20260905005141 66 142 0.0 7.0 0.00 0.00 0.00 64 1013.0
20260905004638 66 140 0.0 4.0 0.00 0.00 0.00 73 1013.1
20260905004139 67 147 0.0 1.0 0.00 0.00 0.00 68 1013.0
20260905003636 66 138 0.0 2.0 0.00 0.00 0.00 67 1012.7
20260905003135 66 138 0.0 2.0 0.00 0.00 0.00 68 1012.5
20260905002637 66 137 0.0 2.0 0.00 0.00 0.00 65 1012.2
20260905002135 66 103 1.0 2.0 0.00 0.00 0.00 61 1012.1
20260905001637 66 122 0.0 2.0 0.00 0.00 0.00 64 1012.3
20260905001426 66 161 0.0 2.0 0.00 0.00 0.00 70 1012.1
20260905000637 66 157 0.0 2.0 0.00 0.00 0.00 66 1012.2
20260905000137 66 147 0.0 2.0 0.00 0.00 0.00 67 1012.3
20260904235635 67 119 0.0 2.0 0.00 0.00 0.00 63 1012.3
20260904235136 67 152 0.0 4.0 0.00 0.00 0.00 67 1012.4
20260904234636 66 146 0.0 4.0 0.00 0.00 0.00 64 1012.3
20260904234135 66 152 0.0 2.0 0.00 0.00 0.00 63 1012.2
20260904233637 67 138 0.0 1.0 0.00 0.00 0.00 62 1012.2
20260904233136 66 87 0.0 1.0 0.00 0.00 0.00 62 1012.2
20260904232636 66 133 0.0 2.0 0.00 0.00 0.00 66 1012.1
20260904232136 67 158 0.0 2.0 0.00 0.00 0.00 62 1012.2
20260904231636 67 108 1.0 2.0 0.00 0.00 0.00 62 1012.0
20260904231136 67 151 0.0 2.0 0.00 0.00 0.00 64 1012.0
20260904230928 66 4 0.0 2.0 0.00 0.00 0.00 64 1011.9
20260904230136 66 174 0.0 3.0 0.00 0.00 0.00 64 1011.8
20260904225640 66 69 0.0 3.0 0.00 0.00 0.00 64 1012.0
20260904225138 66 106 0.0 0.0 0.00 0.00 0.00 62 1011.8
20260904224637 66 136 0.0 0.0 0.00 0.00 0.00 64 1011.8
20260904224136 66 108 0.0 9.0 0.00 0.00 0.00 63 1011.8
20260904223637 66 144 0.0 9.0 0.00 0.00 0.00 64 1011.9
20260904223135 66 140 0.0 4.0 0.00 0.00 0.00 61 1011.8
20260904222928 66 151 0.0 2.0 0.00 0.00 0.00 63 1011.9
20260904222136 66 155 0.0 2.0 0.00 0.00 0.00 63 1011.8
20260904221636 66 150 0.0 3.0 0.00 0.00 0.00 68 1011.7
20260904221135 66 99 0.0 3.0 0.00 0.00 0.00 67 1011.9
20260904220637 66 139 0.0 0.0 0.00 0.00 0.00 66 1011.8
20260904220135 66 141 0.0 0.0 0.00 0.00 0.00 64 1012.0
20260904215637 66 149 0.0 6.0 0.00 0.00 0.00 64 1011.8
20260904215425 66 132 0.0 6.0 0.00 0.00 0.00 64 1012.0
20260904214637 66 103 0.0 4.0 0.00 0.00 0.00 63 1011.9
20260904214137 66 135 0.0 0.0 0.00 0.00 0.00 69 1011.9
20260904213638 66 161 0.0 0.0 0.00 0.00 0.00 65 1011.9
20260904213137 66 126 0.0 4.0 0.00 0.00 0.00 62 1011.8
20260904212637 66 125 0.0 4.0 0.00 0.00 0.00 63 1011.7
20260904212136 66 176 0.0 2.0 0.00 0.00 0.00 65 1011.8
20260904211637 66 128 0.0 2.0 0.00 0.00 0.00 62 1011.9
20260904211136 66 130 0.0 0.0 0.00 0.00 0.00 63 1011.8
20260904210637 65 148 0.0 1.0 0.00 0.00 0.00 64 1011.7
20260904210426 66 141 0.0 4.0 0.00 0.00 0.00 63 1011.7
20260904205637 65 152 0.0 4.0 0.00 0.00 0.00 65 1011.7
20260904205136 65 138 0.0 4.0 0.00 0.00 0.00 65 1011.7
20260904204639 65 119 0.0 6.0 0.00 0.00 0.00 66 1011.7
20260904204137 65 22 0.0 6.0 0.00 0.00 0.00 65 1011.6
20260904203636 64 133 0.0 3.0 0.00 0.00 0.00 67 1011.8
20260904203135 64 132 0.0 3.0 0.00 0.00 0.00 71 1011.9
20260904202637 64 117 0.0 3.0 0.00 0.00 0.00 69 1011.7
20260904202137 64 100 0.0 0.0 0.00 0.00 0.00 72 1011.6
20260904201636 64 141 0.0 2.0 0.00 0.00 0.00 70 1011.8
20260904201135 64 132 0.0 4.0 0.00 0.00 0.00 70 1011.7
20260904200639 64 128 0.0 4.0 0.00 0.00 0.00 68 1011.6
20260904200447 64 139 0.0 2.0 0.00 0.00 0.00 70 1011.7
20260904195638 64 153 0.0 3.0 0.00 0.00 0.00 68 1011.8
20260904195136 64 146 0.0 3.0 0.00 0.00 0.00 71 1011.7
20260904194931 64 112 1.0 14.0 0.00 0.00 0.00 70 1011.7
20260904194135 64 45 2.0 14.0 0.00 0.00 0.00 71 1012.0
20260904193636 63 149 0.0 1.0 0.00 0.00 0.00 73 1011.9
20260904193136 63 176 1.0 2.0 0.00 0.00 0.00 72 1011.8
20260904192636 63 128 0.0 2.0 0.00 0.00 0.00 74 1011.7
20260904192138 63 142 0.0 1.0 0.00 0.00 0.00 73 1011.7
20260904191636 63 162 0.0 4.0 0.00 0.00 0.00 72 1011.7
20260904191137 63 91 1.0 8.0 0.00 0.00 0.00 73 1012.1
20260904190639 64 156 0.0 8.0 0.00 0.00 0.00 73 1012.0
20260904190135 64 129 0.0 7.0 0.00 0.00 0.00 73 1011.8
20260904185636 63 109 0.0 2.0 0.00 0.00 0.00 73 1012.0
20260904185137 63 23 1.0 2.0 0.00 0.00 0.00 73 1012.0
20260904185016 62 157 0.0 1.0 0.00 0.00 0.00 76 1012.1
20260904185007 62 62 1.0 2.0 0.00 0.00 0.00 73 1011.8
20260904183639 62 122 0.0 2.0 0.00 0.00 0.00 77 1012.1
20260904183136 62 146 0.0 2.0 0.00 0.00 0.00 76 1012.0
20260904182635 63 163 1.0 2.0 0.00 0.00 0.00 75 1012.1
20260904182135 63 106 1.0 3.0 0.00 0.00 0.00 75 1011.8
20260904181636 62 102 2.0 3.0 0.00 0.00 0.00 74 1011.9
20260904181425 62 138 1.0 1.0 0.00 0.00 0.00 75 1011.6
20260904180636 62 136 0.0 0.0 0.00 0.00 0.00 74 1011.7
20260904180427 62 127 0.0 0.0 0.00 0.00 0.00 73 1011.7
20260904175929 62 93 0.0 0.0 0.00 0.00 0.00 74 1011.8
20260904175138 62 142 0.0 0.0 0.00 0.00 0.00 76 1011.6
20260904174928 62 138 0.0 0.0 0.00 0.00 0.00 78 1011.8
20260904174137 62 122 0.0 0.0 0.00 0.00 0.00 75 1011.8
20260904173635 62 92 0.0 0.0 0.00 0.00 0.00 73 1011.9
20260904173135 62 158 0.0 8.0 0.00 0.00 0.00 77 1011.7
20260904172637 61 171 1.0 8.0 0.00 0.00 0.00 76 1011.7
20260904172426 61 184 0.0 8.0 0.00 0.00 0.00 78 1011.8
20260904171639 60 184 0.0 8.0 0.00 0.00 0.00 78 1011.8
20260904171137 60 166 0.0 4.0 0.00 0.00 0.00 79 1011.7
20260904170921 59 135 0.0 2.0 0.00 0.00 0.00 82 1011.7
20260904170135 59 40 0.0 3.0 0.00 0.00 0.00 81 1011.8
20260904165637 59 130 0.0 3.0 0.00 0.00 0.00 82 1011.8
20260904165138 59 147 0.0 4.0 0.00 0.00 0.00 84 1011.9
20260904164636 59 131 0.0 4.0 0.00 0.00 0.00 82 1011.5
20260904164136 59 333 0.0 2.0 0.00 0.00 0.00 83 1011.8
20260904163636 59 92 0.0 1.0 0.00 0.00 0.00 86 1011.9
20260904163137 58 126 0.0 0.0 0.00 0.00 0.00 84 1011.8
20260904162637 59 126 0.0 2.0 0.00 0.00 0.00 87 1011.9
20260904162136 58 137 0.0 3.0 0.00 0.00 0.00 84 1012.1
20260904161637 58 76 0.0 3.0 0.00 0.00 0.00 84 1011.9
20260904161426 58 150 0.0 3.0 0.00 0.00 0.00 85 1012.0
20260904160922 58 136 0.0 3.0 0.00 0.00 0.00 86 1012.0
20260904160137 58 22 0.0 0.0 0.00 0.00 0.00 89 1012.0
20260904155635 57 23 0.0 0.0 0.00 0.00 0.00 91 1011.9
20260904155136 56 23 0.0 7.0 0.00 0.00 0.00 92 1011.7
20260904154637 56 22 0.0 7.0 0.00 0.00 0.00 92 1012.0
20260904154137 55 10 0.0 1.0 0.00 0.00 0.00 93 1011.9
20260904153943 55 130 0.0 1.0 0.00 0.00 0.00 94 1011.6
20260904153137 55 138 0.0 1.0 0.00 0.00 0.00 96 1012.0
20260904152637 54 74 0.0 1.0 0.00 0.00 0.00 97 1011.7
20260904152136 54 127 0.0 0.0 0.00 0.00 0.00 97 1011.5
20260904151635 53 128 0.0 0.0 0.00 0.00 0.00 98 1011.4
20260904151136 53 128 0.0 0.0 0.00 0.00 0.00 98 1011.5
20260904150637 53 128 0.0 0.0 0.00 0.00 0.00 98 1011.4
20260904150136 53 128 0.0 0.0 0.00 0.00 0.00 98 1011.6
20260904145636 53 128 0.0 0.0 0.00 0.00 0.00 98 1011.2
20260904145138 53 128 0.0 0.0 0.00 0.00 0.00 98 1011.3
20260904144635 52 128 0.0 0.0 0.00 0.00 0.00 98 1011.1
20260904144136 52 128 0.0 0.0 0.00 0.00 0.00 98 1011.2
20260904143637 52 128 0.0 0.0 0.00 0.00 0.00 98 1011.2
20260904143135 52 128 0.0 0.0 0.00 0.00 0.00 98 1011.3
20260904142636 52 128 0.0 0.0 0.00 0.00 0.00 98 1011.1
20260904142137 52 128 0.0 0.0 0.00 0.00 0.00 98 1011.2
20260904141636 52 128 0.0 0.0 0.00 0.00 0.00 98 1011.2
20260904141137 52 128 0.0 0.0 0.00 0.00 0.00 98 1011.0
20260904140933 52 128 0.0 0.0 0.00 0.00 0.00 98 1010.9
20260904140135 52 128 0.0 0.0 0.00 0.00 0.00 98 1011.0
20260904135636 52 128 0.0 0.0 0.00 0.00 0.00 98 1010.9
20260904135136 52 128 0.0 0.0 0.00 0.00 0.00 98 1010.9
20260904134635 52 128 0.0 0.0 0.00 0.00 0.00 98 1010.9
20260904134201 52 128 0.0 0.0 0.00 0.00 0.00 98 1010.5